When you browse on this site, cookies collect data to enhance your experience and personalize the content and advertising you see.
Visit our Privacy Policy to learn more. By continuing to use the site, you agree to this use of cookies and data.
  • In Romania
  • List of Countries
  • For 7 days
  • Water Temperature
  • Satellite Maps
  • Weather Map
  • Weather Widgets
  • user-avatar
    Login

    Hourly Weather Huancavelica

    Today, 26 May, Sunday

    Time Temperature Precipitation Wind Pressure Humidity
    00:00 +4°C° 0 mm 0 mps 464 mmHg 86%
    01:00 +4°C° 0 mm 0 mps 464 mmHg 85%
    02:00 +4°C° 0 mm 1 mps 463 mmHg 85%
    03:00 +3°C° 0 mm 1 mps 462 mmHg 85%
    04:00 +2°C° 0 mm 1 mps 461 mmHg 85%
    05:00 +3°C° 0 mm 1 mps 462 mmHg 79%
    06:00 +4°C° 0 mm 1 mps 463 mmHg 72%
    07:00 +5°C° 0 mm 1 mps 464 mmHg 66%
    08:00 +7°C° 0 mm 1 mps 465 mmHg 60%
    09:00 +8°C° 0 mm 2 mps 467 mmHg 54%
    10:00 +10°C° 0 mm 2 mps 468 mmHg 48%
    11:00 +12°C° 0.1 mm 2 mps 469 mmHg 46%
    12:00 +12°C° 0.1 mm 3 mps 469 mmHg 43%
    13:00 +13°C° 0.1 mm 3 mps 469 mmHg 41%
    14:00 +12°C° 0.4 mm 3 mps 468 mmHg 44%
    15:00 +13°C° 0.4 mm 2 mps 468 mmHg 48%
    16:00 +12°C° 0.4 mm 2 mps 467 mmHg 51%
    17:00 +9°C° 0.3 mm 2 mps 466 mmHg 63%
    18:00 +7°C° 0.3 mm 1 mps 464 mmHg 75%
    19:00 +5°C° 0.3 mm 1 mps 463 mmHg 87%
    20:00 +4°C° 0 mm 1 mps 463 mmHg 86%
    21:00 +4°C° 0 mm 1 mps 463 mmHg 85%
    22:00 +3°C° 0 mm 1 mps 463 mmHg 85%
    23:00 +3°C° 0 mm 1 mps 463 mmHg 82%

    Tomorrow, 27 May, Monday

    Time Temperature Precipitation Wind Pressure Humidity
    00:00 +3°C° 0 mm 1 mps 462 mmHg 79%
    01:00 +2°C° 0 mm 1 mps 462 mmHg 76%
    02:00 +2°C° 0 mm 1 mps 462 mmHg 73%
    03:00 +1°C° 0 mm 2 mps 462 mmHg 69%
    04:00 +1°C° 0 mm 2 mps 462 mmHg 65%
    05:00 +2°C° 0 mm 2 mps 462 mmHg 61%
    06:00 +3°C° 0 mm 2 mps 463 mmHg 57%
    07:00 +3°C° 0 mm 2 mps 464 mmHg 54%
    08:00 +6°C° 0 mm 2 mps 465 mmHg 49%
    09:00 +8°C° 0 mm 2 mps 467 mmHg 43%
    10:00 +11°C° 0 mm 3 mps 469 mmHg 38%
    11:00 +12°C° 0 mm 3 mps 469 mmHg 37%
    12:00 +13°C° 0 mm 3 mps 469 mmHg 35%
    13:00 +14°C° 0 mm 3 mps 469 mmHg 34%
    14:00 +13°C° 0.3 mm 3 mps 469 mmHg 40%
    15:00 +12°C° 0.3 mm 3 mps 468 mmHg 45%
    16:00 +11°C° 0.3 mm 3 mps 467 mmHg 51%
    17:00 +9°C° 0.2 mm 2 mps 466 mmHg 63%
    18:00 +8°C° 0.2 mm 1 mps 464 mmHg 75%
    19:00 +5°C° 0.2 mm 1 mps 463 mmHg 87%
    20:00 +5°C° 0 mm 1 mps 463 mmHg 89%
    21:00 +3°C° 0 mm 0 mps 463 mmHg 91%
    22:00 +2°C° 0 mm 0 mps 463 mmHg 92%
    23:00 +2°C° 0 mm 0 mps 463 mmHg 91%

    Day after tomorrow, 28 May, Tuesday

    Time Temperature Precipitation Wind Pressure Humidity
    00:00 +3°C° 0 mm 0 mps 463 mmHg 89%
    01:00 +4°C° 0 mm 1 mps 463 mmHg 88%
    02:00 +3°C° 0 mm 1 mps 462 mmHg 90%
    03:00 +1°C° 0 mm 0 mps 461 mmHg 92%
    04:00 0°C° 0 mm 0 mps 460 mmHg 93%
    05:00 +1°C° 0 mm 0 mps 461 mmHg 92%
    06:00 +3°C° 0 mm 1 mps 462 mmHg 91%
    07:00 +4°C° 0 mm 1 mps 463 mmHg 90%
    08:00 +7°C° 0 mm 1 mps 465 mmHg 76%
    09:00 +8°C° 0 mm 2 mps 467 mmHg 62%
    10:00 +10°C° 0 mm 3 mps 468 mmHg 48%
    11:00 +11°C° 0 mm 3 mps 468 mmHg 45%
    12:00 +12°C° 0 mm 3 mps 469 mmHg 42%
    13:00 +13°C° 0 mm 4 mps 469 mmHg 39%
    14:00 +13°C° 0.1 mm 4 mps 468 mmHg 43%
    15:00 +12°C° 0.1 mm 4 mps 468 mmHg 47%
    16:00 +12°C° 0.1 mm 4 mps 467 mmHg 51%
    17:00 +9°C° 0.1 mm 3 mps 466 mmHg 63%
    18:00 +7°C° 0.1 mm 2 mps 464 mmHg 76%
    19:00 +4°C° 0.1 mm 2 mps 463 mmHg 88%
    20:00 +5°C° 0 mm 1 mps 463 mmHg 90%
    21:00 +4°C° 0 mm 1 mps 462 mmHg 92%
    22:00 +3°C° 0 mm 1 mps 462 mmHg 94%
    23:00 +3°C° 0 mm 1 mps 462 mmHg 94%

    29 May, Wednesday

    Time Temperature Precipitation Wind Pressure Humidity
    00:00 +3°C° 0 mm 1 mps 462 mmHg 93%
    01:00 +2°C° 0 mm 1 mps 461 mmHg 93%
    02:00 +2°C° 0 mm 1 mps 461 mmHg 92%
    03:00 +2°C° 0 mm 1 mps 461 mmHg 91%
    04:00 +2°C° 0 mm 1 mps 460 mmHg 89%
    05:00 +3°C° 0 mm 1 mps 462 mmHg 86%
    06:00 +4°C° 0 mm 1 mps 463 mmHg 83%
    07:00 +5°C° 0 mm 1 mps 464 mmHg 80%
    08:00 +7°C° 0 mm 1 mps 465 mmHg 71%
    09:00 +8°C° 0 mm 2 mps 467 mmHg 61%
    10:00 +12°C° 0 mm 2 mps 468 mmHg 51%
    11:00 +11°C° 0.2 mm 3 mps 468 mmHg 51%
    12:00 +12°C° 0.2 mm 4 mps 468 mmHg 50%
    13:00 +13°C° 0.2 mm 4 mps 468 mmHg 49%
    14:00 +12°C° 0.7 mm 4 mps 468 mmHg 51%
    15:00 +12°C° 0.7 mm 4 mps 467 mmHg 53%
    16:00 +11°C° 0.7 mm 4 mps 467 mmHg 55%
    17:00 +9°C° 0.2 mm 3 mps 466 mmHg 64%
    18:00 +7°C° 0.2 mm 2 mps 465 mmHg 74%
    19:00 +6°C° 0.2 mm 1 mps 464 mmHg 84%
    20:00 +5°C° 0.1 mm 1 mps 464 mmHg 86%
    21:00 +5°C° 0.1 mm 1 mps 463 mmHg 88%
    22:00 +3°C° 0.1 mm 0 mps 463 mmHg 90%
    23:00 +3°C° 0 mm 0 mps 463 mmHg 90%

    30 May, Thursday

    Time Temperature Precipitation Wind Pressure Humidity
    00:00 +2°C° 0 mm 0 mps 462 mmHg 91%
    01:00 +2°C° 0 mm 0 mps 462 mmHg 91%
    02:00 +3°C° 0 mm 1 mps 461 mmHg 91%
    03:00 +3°C° 0 mm 1 mps 461 mmHg 91%
    04:00 +2°C° 0 mm 1 mps 461 mmHg 91%
    05:00 +3°C° 0 mm 1 mps 462 mmHg 89%
    06:00 +4°C° 0 mm 1 mps 463 mmHg 88%
    07:00 +5°C° 0 mm 1 mps 464 mmHg 86%
    08:00 +7°C° 0 mm 1 mps 465 mmHg 76%
    09:00 +9°C° 0 mm 1 mps 467 mmHg 65%
    10:00 +10°C° 0 mm 2 mps 468 mmHg 55%
    11:00 +13°C° 0 mm 2 mps 469 mmHg 48%
    12:00 +13°C° 0 mm 3 mps 469 mmHg 41%
    13:00 +14°C° 0 mm 3 mps 469 mmHg 34%
    14:00 +13°C° 0 mm 4 mps 469 mmHg 36%
    15:00 +13°C° 0 mm 4 mps 468 mmHg 37%
    16:00 +13°C° 0 mm 4 mps 468 mmHg 39%
    17:00 +10°C° 0 mm 3 mps 466 mmHg 52%
    18:00 +7°C° 0 mm 2 mps 465 mmHg 65%
    19:00 +5°C° 0 mm 1 mps 463 mmHg 79%
    20:00 +4°C° 0 mm 1 mps 463 mmHg 80%
    21:00 +4°C° 0 mm 1 mps 463 mmHg 81%
    22:00 +3°C° 0 mm 1 mps 462 mmHg 82%
    23:00 +2°C° 0 mm 0 mps 462 mmHg 83%

    31 May, Friday

    Time Temperature Precipitation Wind Pressure Humidity
    00:00 +2°C° 0 mm 0 mps 462 mmHg 83%
    01:00 +1°C° 0 mm 0 mps 461 mmHg 84%
    02:00 +1°C° 0 mm 0 mps 461 mmHg 84%
    03:00 +2°C° 0 mm 1 mps 461 mmHg 83%
    04:00 +2°C° 0 mm 1 mps 460 mmHg 83%
    05:00 +3°C° 0 mm 1 mps 461 mmHg 80%
    06:00 +3°C° 0 mm 0 mps 463 mmHg 77%
    07:00 +4°C° 0 mm 0 mps 464 mmHg 74%
    08:00 +8°C° 0 mm 1 mps 466 mmHg 62%
    09:00 +10°C° 0 mm 1 mps 467 mmHg 51%
    10:00 +13°C° 0 mm 2 mps 469 mmHg 40%
    11:00 +13°C° 0 mm 2 mps 469 mmHg 37%
    12:00 +13°C° 0 mm 3 mps 469 mmHg 34%
    13:00 +14°C° 0 mm 4 mps 469 mmHg 31%
    14:00 +13°C° 0.2 mm 3 mps 468 mmHg 34%
    15:00 +13°C° 0.2 mm 3 mps 468 mmHg 37%
    16:00 +12°C° 0.2 mm 3 mps 467 mmHg 40%
    17:00 +10°C° 0.1 mm 2 mps 466 mmHg 50%
    18:00 +10°C° 0.1 mm 1 mps 465 mmHg 59%
    19:00 +8°C° 0.1 mm 1 mps 465 mmHg 69%
    20:00 +7°C° 0 mm 1 mps 465 mmHg 72%
    21:00 +6°C° 0 mm 0 mps 464 mmHg 74%
    22:00 +6°C° 0 mm 0 mps 464 mmHg 76%
    23:00 +5°C° 0 mm 0 mps 463 mmHg 79%
    Show more